Change the Weather History Date:

Saturday, March 8, 2014

  Actual Average Record
Temperature  
Mean Temperature 45 °F -  
Max Temperature 47 °F - - ()
Min Temperature 43 °F - - ()
Degree Days  
Heating Degree Days 20    
Moisture  
Dew Point 44 °F    
Average Humidity 90    
Maximum Humidity 97    
Minimum Humidity 83    
Precipitation  
Precipitation 0.39 in - - ()
Sea Level Pressure  
Sea Level Pressure 29.82 in    
Wind  
Wind Speed 17 mph ()    
Max Wind Speed 31 mph    
Max Gust Speed 29 mph    
T = Trace of Precipitation, MM = Missing Value Source: Averaged Metar Reports

Daily Weather History Graph

Daily Weather History Graph

Search for Another Location

Airport or City:

Trip Planner

Search our weather history database for the weather conditions in past years. The results will help you decide how hot, cold, wet, or windy it might be!

Date:

Astronomy

Mar. 08, 2014 Rise Set
Actual Time 6:44 AM PST 6:11 PM PST
Civil Twilight 6:12 AM PST 6:42 PM PST
Nautical Twilight 5:35 AM PST 7:19 PM PST
Astronomical Twilight 4:58 AM PST 7:57 PM PST
Moon 10:56 AM PST (3/8) 1:47 AM PST (3/8)
Length of Visible Light 12h 30m
Length of Day
11h 26m
First Quarter, 53% of the Moon is Illuminated
Mar 8
First Quarter
Mar 16
Full
Mar 23
Last Quarter
Mar 30
New
Apr 7
First Quarter

Hourly Weather History & Observations

Time (PST) Temp. Windchill Dew Point Humidity Pressure Visibility Wind Dir Wind Speed Gust Speed Precip Events Conditions
12:00 AM 46.9 °F - 41.9 °F 83% 30.08 in - ESE 16.1 mph - N/A   Unknown
1:00 AM 46.6 °F - 43.5 °F 89% 30.06 in - ESE 15.0 mph - N/A   Unknown
2:00 AM 46.6 °F - 43.5 °F 89% 30.03 in - ESE 18.4 mph - N/A   Unknown
3:00 AM 46.4 °F 39.5 °F 43.3 °F 89% 30.01 in - ESE 17.3 mph - N/A   Unknown
4:00 AM 46 °F - 43 °F 86% 29.98 in - East 15.0 mph - -  
4:00 AM 46.2 °F 39.8 °F 43.2 °F 89% 29.98 in - East 15.0 mph - N/A   Unknown
5:00 AM 47.1 °F - 42.8 °F 85% 29.96 in - SE 16.1 mph 21.9 mph N/A   Unknown
6:00 AM 46.8 °F - 42.6 °F 85% 29.93 in - SE 16.1 mph 21.9 mph N/A   Unknown
7:00 AM 46.0 °F 38.5 °F 42.4 °F 87% 29.91 in - SE 19.6 mph 27.6 mph 0.02 in   Unknown
8:00 AM 45.9 °F 38.3 °F 42.6 °F 88% 29.88 in - ESE 19.6 mph 25.3 mph 0.04 in   Unknown
9:00 AM 45.7 °F 37.1 °F 42.4 °F 88% 29.87 in - ESE 24.2 mph - 0.02 in   Unknown
10:00 AM 45 °F - 43 °F 89% 29.85 in - ESE 27.6 mph - -  
10:00 AM 45.3 °F 36.1 °F 42.8 °F 91% 29.85 in - ESE 27.6 mph - 0.11 in   Unknown
11:00 AM 43.7 °F 35.2 °F 43.0 °F 97% 29.84 in - SE 20.7 mph - 0.06 in   Unknown
12:00 PM 45.1 °F 37.6 °F 42.6 °F 91% 29.80 in - SE 18.4 mph 24.2 mph 0.11 in   Unknown
1:00 PM 45.5 °F 38.9 °F 43.2 °F 92% 29.78 in - SE 15.0 mph - 0.10 in   Unknown
2:00 PM 46.0 °F 38.0 °F 43.3 °F 90% 29.73 in - ESE 21.9 mph 28.8 mph 0.05 in   Unknown
3:00 PM 46.8 °F - 44.2 °F 91% 29.69 in - ESE 31.1 mph - 0.03 in   Unknown
4:00 PM 46 °F - 44 °F 91% 29.68 in - ESE 24.2 mph - -  
4:00 PM 46.2 °F 37.9 °F 44.2 °F 93% 29.68 in - ESE 24.2 mph - 0.04 in   Unknown
5:00 PM 46.2 °F 37.5 °F 44.6 °F 94% 29.67 in - ESE 26.5 mph - 0.04 in   Unknown
6:00 PM 46.4 °F 38.1 °F 44.8 °F 94% 29.65 in - ESE 24.2 mph - 0.06 in   Unknown
7:00 PM 46.6 °F - 44.8 °F 93% 29.65 in - ESE 23.0 mph - 0.05 in   Unknown
8:00 PM 46.4 °F 38.3 °F 44.8 °F 94% 29.64 in - ESE 23.0 mph - 0.02 in   Unknown
9:00 PM 46.4 °F 38.7 °F 44.8 °F 94% 29.65 in - ESE 20.7 mph - 0.02 in   Unknown
10:00 PM 46 °F - 45 °F 94% 29.67 in - ESE 19.6 mph - -  
10:00 PM 46.4 °F 39.0 °F 44.8 °F 94% 29.67 in - ESE 19.6 mph - N/A   Unknown
11:00 PM 46.4 °F 38.7 °F 44.8 °F 94% 29.69 in - ESE 20.7 mph - 0.01 in   Unknown